TimeEDT,TemperatureF,Dew PointF,Humidity,Sea Level PressureIn,VisibilityMPH,Wind Direction,Wind SpeedMPH,Gust SpeedMPH,PrecipitationIn,Events,Conditions,WindDirDegrees,DateUTC
12:21 AM,35.6,32.0,87,29.61,10.0,SW,20.7,-,N/A,,Overcast,230,2013-03-12 04:21:00
12:51 AM,35.6,32.0,87,29.62,9.0,SW,18.4,-,0.00,Rain,Light Rain,230,2013-03-12 04:51:00
12:53 AM,35.1,32.0,89,29.63,9.0,SW,16.1,-,0.00,Rain,Light Rain,230,2013-03-12 04:53:00
1:04 AM,35.6,32.0,87,29.62,9.0,SW,17.3,-,0.00,,Overcast,230,2013-03-12 05:04:00
1:13 AM,35.6,32.0,87,29.62,9.0,SW,15.0,-,0.00,,Overcast,230,2013-03-12 05:13:00
1:40 AM,35.6,32.0,87,29.62,10.0,WSW,12.7,19.6,0.00,,Overcast,240,2013-03-12 05:40:00
1:53 AM,36.0,30.9,82,29.65,10.0,WSW,12.7,-,0.00,,Overcast,240,2013-03-12 05:53:00
2:16 AM,35.6,30.2,81,29.64,10.0,SW,13.8,-,N/A,,Overcast,230,2013-03-12 06:16:00
2:48 AM,35.6,30.2,81,29.65,10.0,SW,15.0,-,N/A,,Overcast,230,2013-03-12 06:48:00
2:53 AM,35.1,30.9,85,29.67,10.0,SW,12.7,-,N/A,,Overcast,230,2013-03-12 06:53:00
3:53 AM,35.1,30.9,85,29.68,10.0,SW,11.5,-,N/A,,Overcast,230,2013-03-12 07:53:00
4:32 AM,35.6,30.2,81,29.67,10.0,SW,15.0,-,N/A,,Overcast,230,2013-03-12 08:32:00
4:53 AM,35.1,30.9,85,29.68,10.0,SW,11.5,-,N/A,,Overcast,230,2013-03-12 08:53:00
5:41 AM,35.6,30.2,81,29.68,5.0,WSW,10.4,-,0.00,Snow,Light Snow,240,2013-03-12 09:41:00
5:53 AM,34.0,30.9,89,29.70,8.0,West,13.8,-,0.00,,Overcast,260,2013-03-12 09:53:00
6:08 AM,33.8,30.2,87,29.69,10.0,West,11.5,-,N/A,,Overcast,260,2013-03-12 10:08:00
6:37 AM,33.8,28.4,81,29.71,10.0,West,11.5,-,N/A,,Overcast,260,2013-03-12 10:37:00
6:44 AM,33.8,28.4,81,29.72,6.0,West,15.0,19.6,0.00,Snow,Light Snow,270,2013-03-12 10:44:00
6:53 AM,33.1,28.0,82,29.74,8.0,West,13.8,-,0.00,Snow,Light Snow,260,2013-03-12 10:53:00
7:12 AM,33.8,26.6,75,29.73,10.0,West,12.7,21.9,N/A,,Overcast,260,2013-03-12 11:12:00
7:31 AM,33.8,26.6,75,29.74,10.0,West,10.4,19.6,N/A,,Overcast,260,2013-03-12 11:31:00
7:53 AM,33.1,27.0,78,29.76,10.0,West,15.0,24.2,N/A,,Overcast,270,2013-03-12 11:53:00
8:53 AM,33.1,27.0,78,29.78,10.0,WSW,11.5,17.3,N/A,,Overcast,240,2013-03-12 12:53:00
9:53 AM,32.0,25.0,75,29.80,10.0,WSW,15.0,24.2,N/A,,Overcast,250,2013-03-12 13:53:00
10:32 AM,33.8,24.8,70,29.78,10.0,WSW,15.0,-,N/A,,Overcast,250,2013-03-12 14:32:00
10:53 AM,33.1,25.0,72,29.81,10.0,WSW,18.4,23.0,N/A,,Overcast,240,2013-03-12 14:53:00
11:24 AM,33.8,24.8,70,29.79,10.0,WSW,17.3,21.9,N/A,,Overcast,250,2013-03-12 15:24:00
11:53 AM,33.1,23.0,66,29.82,10.0,West,18.4,-,N/A,,Overcast,260,2013-03-12 15:53:00
12:53 PM,33.1,24.1,70,29.83,3.0,WSW,19.6,-,N/A,,Overcast,250,2013-03-12 16:53:00
1:28 PM,33.8,24.8,70,29.81,4.0,WSW,17.3,25.3,0.00,,Haze,250,2013-03-12 17:28:00
1:53 PM,34.0,25.0,70,29.83,10.0,WSW,17.3,23.0,0.00,,Overcast,250,2013-03-12 17:53:00
2:53 PM,35.1,24.1,64,29.83,10.0,WSW,15.0,23.0,0.00,,Overcast,250,2013-03-12 18:53:00
3:15 PM,33.8,23.0,65,29.81,10.0,WSW,13.8,21.9,N/A,,Overcast,240,2013-03-12 19:15:00
3:37 PM,35.6,24.8,65,29.81,10.0,WSW,13.8,21.9,N/A,,Overcast,240,2013-03-12 19:37:00
3:53 PM,35.1,25.0,67,29.83,10.0,WSW,17.3,-,N/A,,Overcast,240,2013-03-12 19:53:00
4:53 PM,33.1,25.0,72,29.84,10.0,West,18.4,-,N/A,,Overcast,260,2013-03-12 20:53:00
5:53 PM,33.1,26.1,75,29.85,9.0,WSW,11.5,-,0.00,,Overcast,240,2013-03-12 21:53:00
6:14 PM,32.0,24.8,75,29.83,1.5,WSW,20.7,28.8,0.00,Snow,Light Snow,240,2013-03-12 22:14:00
6:23 PM,32.0,26.6,80,29.83,1.0,WSW,15.0,24.2,0.00,Snow,Light Snow,250,2013-03-12 22:23:00
6:47 PM,32.0,26.6,80,29.84,8.0,WSW,12.7,-,0.00,,Overcast,250,2013-03-12 22:47:00
6:53 PM,32.0,27.0,82,29.86,10.0,WSW,11.5,-,0.00,,Overcast,250,2013-03-12 22:53:00
7:53 PM,32.0,24.1,73,29.88,10.0,West,10.4,-,N/A,,Overcast,260,2013-03-12 23:53:00
8:26 PM,32.0,24.8,75,29.86,4.0,WSW,11.5,-,0.00,Snow,Light Snow,250,2013-03-13 00:26:00
8:53 PM,30.9,26.1,82,29.89,4.0,WSW,10.4,-,0.00,Snow,Light Snow,250,2013-03-13 00:53:00
9:05 PM,30.2,26.6,86,29.86,5.0,WSW,9.2,-,0.00,Snow,Light Snow,250,2013-03-13 01:05:00
9:53 PM,30.0,24.1,79,29.89,10.0,West,12.7,-,0.00,,Overcast,260,2013-03-13 01:53:00
10:33 PM,30.2,23.0,75,29.86,10.0,WSW,10.4,-,N/A,,Mostly Cloudy,250,2013-03-13 02:33:00
10:53 PM,30.0,23.0,75,29.89,10.0,WSW,8.1,-,N/A,,Mostly Cloudy,250,2013-03-13 02:53:00
11:19 PM,30.2,23.0,75,29.86,10.0,WSW,9.2,-,N/A,,Overcast,250,2013-03-13 03:19:00
11:53 PM,28.9,21.9,75,29.89,10.0,WSW,8.1,-,N/A,,Mostly Cloudy,250,2013-03-13 03:53:00